Terminal Aerodrome Forecast
Issued by NWS Aberdeen, SD

Home | Current Version | Previous Version | Text Only | Print | Product List | Glossary On
Versions: 1 2 3 4 5 6 7 8 9 10 11 12 13 14 15 16 17 18 19 20 21 22 23 24 25 26 27 28 29 30 31 32 33 34 35 36 37 38 39 40 41 42 43 44 45 46 47 48 49 50
000
FTAK31 PAFA 030231 AAB
TAFABR
TAF AMD
PABR 030231Z 0303/0324 25018G26KT 6SM -RA BR OVC007
     FM030600 25020G30KT 1SM -SHRA BR BKN005 OVC010
     FM031200 27020G25KT 1SM -SHRA BR OVC003
     FM031700 26012KT 4SM -RA BR BKN005 OVC010=

USA.gov is the U.S. government's official web portal to all federal, state and local government web resources and services.